Simultaneous Nadir Overpasses (SNOs) Predictions

Prediction of SNOs between AQUA and GOES-15 Satellite Orbit:

Table of predicted SNOs for the next 14.0 days since TLE Epoch: 5/28/2016
Index Date Time (AQUA) AQUA Lat,Lon GOES-15 Lat,Lon Distance(km) Time Diff (sec)
1 05/28/2016 10:25:53 -0.43,-132.64 0.02,-134.78 242.75 80
2 05/28/2016 22:47:17 -0.67,-137.84 -0.01,-134.78 348.15 80
3 05/30/2016 22:35:06 -0.01,-134.89 -0.01,-134.86 3.03 80
4 06/01/2016 22:22:54 0.60,-131.93 -0.01,-134.94 341.71 80
5 06/02/2016 10:44:10 0.48,-137.09 0.00,-134.99 240.16 80
6 06/04/2016 10:31:59 -0.20,-134.15 -0.00,-135.06 103.53 80
7 06/04/2016 22:53:22 -0.90,-139.34 0.01,-135.05 488.16 80
8 06/06/2016 10:19:47 -0.82,-131.19 -0.00,-135.12 446.73 80
9 06/06/2016 22:41:10 -0.28,-136.38 0.01,-135.11 145.06 80
10 06/08/2016 22:29:00 0.41,-133.44 0.01,-135.17 197.88 80
11 06/09/2016 10:50:14 0.72,-138.59 -0.02,-135.21 384.23 80




NCC Satellite Simultaneous Nadir Overpasses (SNOs) Prediction Service
